This is the latest recevied weather packets stored in our database for station/object KD8NVS-13. If no packets are shown the sender has not sent any weather packets the latest 10 day(s).
| Time | Temp. | Humidity | Pressure | Rain* | Wind** | Luminosity | Snow |
|---|---|---|---|---|---|---|---|
| 1777872013 | 12.22° C | 57% | 1003.2 hPa | 0 mm | - | 0 W/m² | - |
| 1777871709 | 12.22° C | 56% | 1002.8 hPa | 0 mm | - | 0 W/m² | - |
| 1777871405 | 12.22° C | 57% | 1003.2 hPa | 0 mm | - | 0 W/m² | - |
| 1777871102 | 12.78° C | 56% | 1002.8 hPa | 0 mm | - | 0 W/m² | - |
| 1777870799 | 12.22° C | 55% | 1003.2 hPa | 0 mm | - | 0 W/m² | - |
| 1777870495 | 12.22° C | 55% | 1003.2 hPa | 0 mm | - | 0 W/m² | - |
| 1777870191 | 12.22° C | 57% | 1002.8 hPa | 0 mm | - | 0 W/m² | - |
| 1777869889 | 12.22° C | 56% | 1003.2 hPa | 0 mm | - | 0 W/m² | - |
| 1777869586 | 11.67° C | 57% | 1002.8 hPa | 0 mm | - | 0 W/m² | - |
| 1777869283 | 11.67° C | 58% | 1003.2 hPa | 0 mm | - | 0 W/m² | - |
| 1777868980 | 11.67° C | 62% | 1003.2 hPa | 0 mm | - | 0 W/m² | - |
| 1777868677 | 11.11° C | 62% | 1002.8 hPa | 0 mm | - | 0 W/m² | - |
| 1777868373 | 11.11° C | 66% | 1003.2 hPa | 0 mm | - | 0 W/m² | - |
| 1777868070 | 11.11° C | 66% | 1003.2 hPa | 0 mm | - | 0 W/m² | - |
| 1777867765 | 11.11° C | 65% | 1003.2 hPa | 0 mm | - | 0 W/m² | - |
| 1777867464 | 11.11° C | 66% | 1003.2 hPa | 0 mm | - | 0 W/m² | - |
| 1777867159 | 11.11° C | 66% | 1003.5 hPa | 0 mm | - | 0 W/m² | - |
| 1777866857 | 11.11° C | 66% | 1003.5 hPa | 0 mm | - | 0 W/m² | - |
| 1777866553 | 11.11° C | 66% | 1003.5 hPa | 0 mm | - | 0 W/m² | - |
| 1777866251 | 10.56° C | 69% | 1003.2 hPa | 0 mm | - | 0 W/m² | - |
| 1777865948 | 10.56° C | 71% | 1003.5 hPa | 0 mm | - | 0 W/m² | - |
| 1777865646 | 10.56° C | 73% | 1003.5 hPa | 0 mm | - | 0 W/m² | - |
| 1777865342 | 10.56° C | 75% | 1003.5 hPa | 0 mm | - | 0 W/m² | - |
| 1777865039 | 10.56° C | 75% | 1003.5 hPa | 0 mm | - | 0 W/m² | - |
| 1777864736 | 10.56° C | 75% | 1003.5 hPa | 0 mm | - | 0 W/m² | - |
* Rain latest hour (hover to see other rain measurements)
** Current wind speed in m/s (hover to see current wind gust speed)